Location: Bratislava
(48.1500°N, 17.1170°E)
Time: 07:40:33
(UTC+02:00)

ISS - Pass Details

Date: 30 March 2019
Orbit: 408 x 410 km, 51.6° (Epoch: 26 April)

Event Time Altitude Azimuth Distance (km) Brightness Sun altitude
Rises 20:50:25 0° 291° (WNW) 2,339 1.3 -24.1°
Reaches altitude 10° 20:52:31 10° 294° (WNW) 1,476 0.0 -24.4°
Enters shadow 20:54:32 34° 303° (WNW) 704 -2.1 -24.6°
